Regional Weather Roundup
Issued by NWS

Home | Current Version | Previous Version | Graphics & Text | Print | Product List | Glossary On
Versions: 1 2 3 4 5 6 7 8 9 10 11 12 13 14 15 16 17 18 19 20 21 22 23 24 25 26 27 28 29 30 31 32 33 34 35 36 37 38 39 40 41 42 43 44 45 46 47 48 49 50
000
ASUS45 KABQ 031510
RWRNM
NEW MEXICO REGIONAL WEATHER ROUNDUP
NATIONAL WEATHER SERVICE ALBUQUERQUE NM
900 AM MDT MON AUG 03 2015

NOTE: "FAIR" MEANS FEW OR NO CLOUDS BELOW 12,000 FEET AGL WITH NO
       SIGNIFICANT WEATHER OR OBSTRUCTIONS TO VISION.

      THIS PRODUCT IS RELEASED AS TWO VERSIONS.  ONE VERSION NEAR
      THE TOP OF THE HOUR CONTAINING PRELIMINARY DATA FROM ALBUQUERQUE
      AND OTHER STATIONS.  A FINAL VERSION WITH ADDITIONAL DATA IS
      ISSUED ABOUT 10 MINUTES AFTER THE HOUR.

NMZ501-503-504-510>518-031600-
NORTHWEST PLATEAU/NORTHCENTRAL MOUNTAINS

CITY           SKY/WX    TMP DP  RH WIND       PRES   REMARKS
FARMINGTON     MOSUNNY   62  60  93 E8        30.19S
LOS ALAMOS     SUNNY     62  55  80 CALM      30.29S
SANTA FE       SUNNY     67  57  70 N10       30.23R
TAOS           MOSUNNY   63  48  59 CALM      30.29S
ANGEL FIRE     FAIR      58  51  79 CALM      30.35S

$$
NMZ402-403-502-505>509-031600-
WESTCENTRAL MOUNTAINS/SOUTHWEST MOUNTAINS

CITY           SKY/WX    TMP DP  RH WIND       PRES   REMARKS
GALLUP         SUNNY     62  57  83 CALM      30.27R
GRANTS         FOG       58  58 100 N5        30.29R VSB 1/4
SILVER CITY      N/A     73  55  53 N3        30.20R

$$
NMZ407-409-411-412-031600-
SOUTHERN DESERTS

CITY           SKY/WX    TMP DP  RH WIND       PRES   REMARKS
LORDSBURG      FAIR      73  59  60 NW3       30.11R
DEMING         PTSUNNY   75  62  64 E3        30.12R
LAS CRUCES     PTSUNNY   75  61  60 CALM      30.12S
HOLLOMAN AFB   PTSUNNY   77  61  56 VRB2      30.07R
ALAMOGORDO     MOSUNNY   75  63  64 S7        30.10R
T OR C         MOSUNNY   75  59  57 W5        30.14R

$$
NMZ519>523-031600-
CENTRAL VALLEYS/CENTRAL HIGHLANDS

CITY           SKY/WX    TMP DP  RH WIND       PRES   REMARKS
ALBUQUERQUE    MOSUNNY   69  59  70 CALM      30.19R
DOUBLE EAGLE   MOSUNNY   68  61  77 VRB5      30.23R
MORIARTY ARPT    N/A     66  56  70 CALM      30.23S
CLINES CORNERS MOSUNNY   66  56  70 W10       30.25R
BELEN          FAIR      71  58  62 N5        30.18S
SOCORRO        FAIR      70  59  68 N5        30.16R

$$
NMZ524>526-539-540-031600-
SOUTHCENTRAL MOUNTAINS

CITY           SKY/WX    TMP DP  RH WIND       PRES   REMARKS
RUIDOSO          N/A    N/A N/A N/A MISG        N/A

$$
NMZ527>531-031600-
NORTHEAST HIGHLANDS/NORTHEAST PLAINS

CITY           SKY/WX    TMP DP  RH WIND       PRES   REMARKS
RATON          NOT AVBL
CLAYTON        MOSUNNY   74  63  68 W10       30.09S

$$
NMZ532>537-031600-
EASTCENTRAL PLAINS

CITY           SKY/WX    TMP DP  RH WIND       PRES   REMARKS
TUCUMCARI      PTSUNNY   71  66  84 W6        30.04S
CANNON AFB     PTSUNNY   74  64  71 S7        30.06S
CLOVIS AIRPORT PTSUNNY   73  64  73 SE9       30.07S

$$
NMZ028-029-538-031600-
SOUTHEAST PLAINS

CITY           SKY/WX    TMP DP  RH WIND       PRES   REMARKS
ROSWELL        PTSUNNY   78  65  63 N5        30.04R
ARTESIA        PTSUNNY   77  64  65 NW8       30.05S
CARLSBAD       PTSUNNY   80  63  55 NW9       30.02R
HOBBS          SUNNY     81  63  54 SE9       30.05S


$$


USA.gov is the U.S. government's official web portal to all federal, state and local government web resources and services.